Regional Weather Roundup
Issued by NWS

Home | Current Version | Previous Version | Graphics & Text | Print | Product List | Glossary On
Versions: 1 2 3 4 5 6 7 8 9 10 11 12 13 14 15 16 17 18 19 20 21 22 23 24 25 26 27 28 29 30 31 32 33 34 35 36 37 38 39 40 41 42 43 44 45 46 47 48 49 50
000
ASUS43 KIND 250659
RWRIN

WEATHER ROUNDUP FOR INDIANA
NATIONAL WEATHER SERVICE INDIANAPOLIS IN
200 AM EST SAT NOV 25 2017

NOTE: "FAIR" INDICATES FEW OR NO CLOUDS BELOW 12,000 FEET WITH NO
SIGNIFICANT WEATHER AND/OR OBSTRUCTIONS TO VISIBILITY.

* - STATION DOES NOT REPORT WEATHER SUCH AS PRECIPITATION OR FOG.

+ - STATION NOT QUALITY CONTROLLED BY THE NATIONAL WEATHER SERVICE.
    USE DATA WITH CAUTION...ESPECIALLY DEWPOINT AND RELATIVE
    HUMIDITY OBSERVATIONS.

INZ001>003-010>013-019-020-250800-
NORTHWEST INDIANA

CITY           SKY/WX    TMP DP  RH WIND       PRES   REMARKS
KNOX *+        MOCLDY    48  37  66 W13       29.63R
MICHIGAN CITY+ CLOUDY    50  37  62 W5        29.63R
MONTICELLO +   PTCLDY    48  37  66 W13       29.65R
RENSSELAER +   CLOUDY    45  34  65 W8        29.66R

$$

LMZ046-743>745-250800-
SOUTHERN LAKE MICHIGAN

STATION/POSITION TIME  TEMP    WIND        PRES    WAVE
                       AIR SEA DIR/SP/G            HT
                 (UTC) (F)     (DEG/KT/KT) (MB)    (FT)
BURNS HARBOR     0600   51     230/ 10/ 19 1003.4
MICHIGAN CITY    0630   51     220/ 20/ 21   N/A

$$

INZ004-005-014>016-021>024-250800-
NORTH CENTRAL INDIANA

CITY           SKY/WX    TMP DP  RH WIND       PRES   REMARKS
GOSHEN         PTCLDY    48  34  58 SW13      29.60R
PERU/GRISSOM   MOCLDY    49  36  62 W16       29.64R
SOUTH BEND     CLOUDY    49  39  68 W12       29.62R
WARSAW +       PTCLDY    48  36  61 SW14      29.61R

$$

INZ006>009-017-018-025>027-250800-
NORTHEAST INDIANA

CITY           SKY/WX    TMP DP  RH WIND       PRES   REMARKS
AUBURN +       PTCLDY    50  32  50 SW8G16    29.60R
FORT WAYNE     CLOUDY    48  35  60 SW14      29.63R

$$

INZ028-029-035-036-043>045-051>053-250800-
WEST CENTRAL INDIANA

CITY           SKY/WX    TMP DP  RH WIND       PRES   REMARKS
CRAWFORDSVL +  CLEAR     47  36  63 SW14      29.68R
GREENCASTLE +  CLOUDY    46  32  57 SW6       29.72R
LAFAYETTE      PTCLDY    49  38  65 W10       29.68R
TERRE HAUTE    PTCLDY    51  35  54 SW10      29.71F

$$

INZ030>032-037>040-046>048-054>057-064-065-250800-
CENTRAL INDIANA

CITY           SKY/WX    TMP DP  RH WIND       PRES   REMARKS
INDIANAPOLIS   CLOUDY    51  33  50 SW20      29.70R
-EAGLE CREEK   MOCLDY    52  33  48 SW12G21   29.68S
KOKOMO +       MOCLDY    50  37  61 SW20      29.66R
MT COMFORT *+  MOCLDY    48  37  66 SW9       29.69S
SHELBYVILLE    CLOUDY    47  30  51 S9        29.70S

$$

INZ033-034-041-042-049-050-058-059-250800-
EAST CENTRAL INDIANA

CITY           SKY/WX    TMP DP  RH WIND       PRES   REMARKS
MUNCIE         CLOUDY    50  30  46 SW12      29.66R
RICHMOND +     CLOUDY    46  30  53 SW15      29.70S

$$

INZ060-061-067>069-081>083-085>088-250800-
SOUTHWEST INDIANA

CITY           SKY/WX    TMP DP  RH WIND       PRES   REMARKS
EVANSVILLE     CLOUDY    51  35  54 SW13      29.78S
HUNTINGBURG +  CLOUDY    51  33  50 S13       29.78S

$$

INZ062-063-066-070>080-084-089>092-250800-
SOUTH CENTRAL AND SOUTHEAST INDIANA

CITY           SKY/WX    TMP DP  RH WIND       PRES   REMARKS
BLOOMINGTON    PTCLDY    52  31  44 W10G21    29.74R
MADISON *+     PTCLDY    50  27  40 SW7       29.78S
SEYMOUR +      PTCLDY    50  32  50 SW10      29.75R

$$




USA.gov is the U.S. government's official web portal to all federal, state and local government web resources and services.